Location: Melque
(41.0517°N, 4.4694°W)
Time: 16:27:36
(UTC+00:00)

Cosmos 1825 Rocket - Pass Details

Date: 11 December 2025
Orbit: 596 x 624 km, 82.5° (Epoch: 15 January)

Event Time Altitude Azimuth Distance (km) Brightness Sun altitude
Rises 17:22:05 0° 2° (N) 2,876 6.7 -6.3°
Reaches altitude 10° 17:24:33 10° 13° (NNE) 1,962 5.8 -6.7°
Maximum altitude 17:28:23 30° 76° (ENE) 1,090 4.3 -7.3°
Drops below altitude 10° 17:32:09 10° 138° (SE) 1,936 5.9 -8.0°
Sets 17:34:34 0° 149° (SSE) 2,831 6.9 -8.4°
